Location: ??
(35.5052°N, 139.7262°E)
Time: 22:15:10
(UTC+00:00)

N. Korean satellite - Pass Details

Date: 28 September 2021
Orbit: 450 x 495 km, 97.3° (Epoch: 21 October)

Event Time Altitude Azimuth Distance (km) Brightness Sun altitude
Rises 19:24:40 0° 22° (NNE) 2,543 10.6 -14.9°
Reaches altitude 10° 19:26:52 10° 32° (NNE) 1,667 9.8 -14.5°
Maximum altitude 19:30:08 32° 98° (E) 847 8.5 -13.8°
Drops below altitude 10° 19:33:25 10° 163° (SSE) 1,675 9.4 -13.2°
Sets 19:35:37 0° 173° (S) 2,556 10.2 -12.7°
